Temp
-16 -15 -15 -14 -15 -13 -12 -11 -10 -10 -10 -9 -9 -9 -8 -8 -8 -7 -7 -7 -7 -7 -7 -7 -7 -7 -7 -6 -6 -6 -6 -6 -6 -6 -6 -5 -6 -6 -6 -6 -6 -6 -6 -6 -6 -6 -6 -6 -6
-16 -16 -15 -15 -15 -13 -12 -11 -10 -10 -9 -10 -10 -9 -9 -8 -8 -8 -8 -7 -7 -7 -7 -7 -7 -7 -7 -7 -6 -6 -6 -6 -6 -6 -6 -6 -6 -6 -6 -6 -6 -6 -6 -6 -6 -6 -6 -6 -6
-17 -17 -16 -15 -15 -14 -12 -11 -11 -11 -10 -10 -10 -9 -9 -8 -8 -8 -8 -8 -8 -8 -7 -7 -7 -7 -7 -7 -7 -6 -6 -6 -6 -6 -6 -6 -6 -6 -6 -6 -6 -6 -6 -6 -6 -6 -6 -6 -6
-17 -17 -16 -14 -15 -14 -13 -11 -11 -11 -10 -9 -9 -10 -9 -9 -9 -9 -8 -8 -8 -8 -8 -8 -7 -8 -7 -7 -7 -7 -6 -6 -6 -6 -6 -6 -6 -7 -7 -6 -6 -6 -6 -6 -6 -6 -6 -6 -6
-18 -17 -16 -15 -15 -14 -13 -12 -12 -11 -10 -10 -9 -9 -9 -9 -9 -9 -9 -8 -8 -8 -8 -8 -8 -8 -8 -7 -7 -7 -7 -6 -6 -6 -6 -7 -7 -7 -7 -7 -6 -6 -6 -6 -7 -7 -7 -7 -7
-18 -17 -15 -15 -14 -14 -13 -13 -12 -12 -11 -10 -9 -9 -10 -10 -9 -9 -9 -9 -8 -8 -8 -8 -8 -8 -8 -8 -7 -7 -7 -7 -7 -7 -7 -7 -7 -7 -7 -7 -7 -7 -7 -7 -7 -7 -7 -7 -7
-18 -17 -15 -14 -14 -14 -14 -13 -14 -12 -12 -10 -10 -10 -10 -10 -10 -9 -9 -9 -9 -9 -8 -9 -9 -8 -8 -8 -8 -8 -7 -7 -7 -7 -7 -7 -7 -7 -7 -7 -7 -7 -7 -7 -7 -7 -7 -7 -7
-17 -16 -16 -15 -14 -14 -14 -14 -13 -12 -12 -11 -11 -10 -10 -10 -9 -10 -9 -9 -9 -9 -9 -9 -9 -9 -9 -8 -8 -8 -8 -8 -7 -7 -8 -8 -8 -8 -8 -8 -8 -7 -7 -7 -7 -7 -8 -8 -8
-17 -16 -15 -15 -15 -14 -14 -14 -13 -12 -12 -11 -10 -10 -9 -10 -10 -10 -9 -9 -9 -10 -10 -9 -9 -9 -9 -9 -8 -8 -8 -8 -8 -8 -8 -8 -8 -8 -8 -8 -8 -8 -8 -8 -8 -8 -8 -8 -8
-18 -17 -16 -16 -14 -15 -15 -14 -13 -12 -12 -11 -11 -10 -10 -9 -10 -10 -10 -9 -10 -10 -10 -10 -9 -9 -9 -9 -9 -9 -8 -8 -8 -8 -8 -8 -8 -8 -8 -8 -8 -8 -8 -8 -8 -8 -8 -8 -8
-18 -18 -17 -16 -15 -15 -15 -14 -14 -12 -12 -12 -12 -11 -10 -10 -9 -10 -10 -10 -10 -10 -10 -10 -10 -10 -10 -9 -9 -9 -9 -9 -9 -9 -9 -9 -9 -9 -9 -9 -9 -8 -8 -8 -8 -8 -8 -8 -8
-17 -15 -17 -16 -15 -15 -15 -14 -14 -13 -13 -13 -13 -12 -11 -10 -10 -9 -10 -9 -10 -10 -11 -11 -10 -10 -10 -10 -10 -10 -10 -9 -9 -9 -9 -9 -9 -9 -9 -9 -9 -9 -9 -9 -9 -9 -9 -9 -9
-17 -16 -16 -15 -15 -15 -15 -14 -14 -14 -13 -13 -13 -12 -12 -11 -11 -9 -10 -10 -10 -10 -10 -11 -11 -11 -11 -11 -10 -11 -11 -10 -10 -10 -9 -9 -9 -9 -9 -9 -9 -9 -9 -9 -9 -9 -9 -9 -9
-17 -16 -15 -15 -15 -15 -15 -15 -14 -14 -14 -13 -13 -13 -12 -11 -11 -11 -11 -10 -10 -10 -10 -11 -11 -12 -12 -11 -11 -11 -11 -11 -11 -11 -10 -10 -10 -10 -9 -9 -10 -10 -10 -10 -10 -9 -9 -9 -9
-16 -15 -16 -15 -15 -15 -15 -15 -14 -13 -13 -12 -12 -12 -12 -12 -10 -11 -11 -11 -10 -10 -10 -10 -11 -12 -12 -11 -11 -11 -11 -11 -11 -11 -11 -11 -10 -10 -10 -10 -10 -10 -10 -10 -10 -10 -10 -10 -10
-16 -15 -15 -15 -15 -15 -15 -15 -14 -13 -13 -13 -12 -12 -12 -12 -11 -11 -11 -11 -11 -11 -10 -10 -10 -11 -11 -11 -11 -11 -12 -12 -12 -11 -11 -11 -11 -11 -11 -11 -10 -10 -10 -10 -10 -10 -11 -10 -10
-17 -16 -15 -15 -15 -15 -15 -15 -14 -14 -13 -13 -13 -13 -12 -12 -12 -11 -11 -11 -11 -11 -10 -10 -11 -10 -11 -11 -11 -11 -11 -11 -11 -12 -12 -12 -12 -12 -11 -11 -11 -11 -11 -11 -11 -11 -11 -11 -11
-16 -16 -15 -15 -15 -15 -15 -15 -15 -14 -14 -13 -13 -13 -13 -13 -12 -12 -11 -11 -11 -11 -10 -11 -11 -10 -11 -11 -11 -11 -12 -12 -12 -12 -13 -13 -13 -12 -12 -12 -12 -12 -11 -11 -11 -11 -11 -11 -11
-17 -16 -15 -15 -15 -15 -15 -15 -15 -14 -14 -14 -14 -13 -13 -13 -13 -13 -12 -12 -11 -11 -11 -11 -11 -11 -11 -11 -11 -11 -11 -12 -12 -12 -13 -12 -12 -12 -12 -12 -12 -12 -12 -12 -11 -11 -11 -11 -11
-16 -16 -17 -18 -15 -15 -16 -15 -15 -14 -14 -14 -14 -13 -13 -13 -13 -13 -13 -13 -12 -12 -12 -11 -11 -11 -11 -10 -11 -11 -11 -12 -12 -13 -13 -13 -13 -13 -12 -12 -12 -12 -12 -12 -12 -12 -12 -11 -12
-15 -16 -16 -17 -16 -15 -15 -16 -15 -15 -14 -14 -14 -14 -14 -14 -14 -14 -14 -14 -13 -13 -13 -13 -12 -12 -12 -12 -12 -12 -11 -11 -12 -13 -14 -14 -13 -13 -13 -12 -12 -12 -12 -12 -12 -12 -12 -12 -12
-15 -15 -15 -15 -16 -16 -16 -15 -15 -15 -15 -14 -13 -14 -14 -14 -14 -14 -14 -14 -13 -13 -13 -13 -13 -13 -13 -13 -13 -12 -12 -12 -12 -13 -13 -13 -14 -13 -13 -12 -12 -12 -12 -12 -12 -13 -12 -12 -13
-17 -16 -16 -15 -15 -17 -16 -16 -15 -15 -15 -14 -13 -14 -14 -14 -14 -14 -14 -14 -14 -14 -13 -13 -14 -13 -13 -13 -13 -13 -13 -12 -13 -13 -13 -13 -13 -13 -13 -13 -13 -12 -12 -12 -12 -12 -12 -13 -14
-17 -17 -17 -16 -16 -15 -16 -16 -16 -15 -16 -15 -15 -15 -15 -15 -15 -15 -15 -15 -15 -15 -15 -15 -14 -14 -13 -13 -14 -14 -13 -13 -13 -13 -13 -13 -13 -13 -13 -13 -12 -12 -12 -12 -11 -12 -13 -14 -14
-18 -17 -18 -18 -18 -16 -16 -15 -15 -16 -16 -17 -15 -15 -15 -15 -15 -15 -15 -15 -15 -15 -15 -15 -15 -14 -14 -14 -14 -14 -13 -13 -13 -14 -13 -13 -13 -13 -13 -14 -13 -13 -14 -14 -14 -14 -14 -14 -13
-18 -19 -19 -18 -19 -18 -18 -15 -15 -16 -17 -17 -16 -16 -15 -16 -15 -15 -15 -15 -15 -16 -16 -15 -15 -14 -14 -14 -14 -14 -13 -14 -14 -14 -13 -13 -13 -13 -13 -13 -13 -13 -13 -13 -13 -13 -13 -13 -13
-20 -20 -20 -19 -19 -19 -18 -17 -17 -17 -16 -16 -16 -16 -16 -16 -15 -15 -15 -15 -15 -15 -15 -15 -15 -14 -14 -14 -13 -14 -13 -13 -13 -13 -14 -13 -13 -13 -13 -13 -13 -13 -13 -13 -13 -13 -13 -14 -14
-21 -21 -21 -20 -20 -20 -19 -18 -17 -18 -18 -17 -17 -17 -17 -17 -16 -16 -15 -15 -15 -16 -15 -15 -14 -14 -14 -14 -14 -14 -13 -13 -13 -13 -14 -14 -14 -13 -14 -14 -13 -13 -13 -13 -13 -13 -13 -14 -14
-22 -21 -21 -21 -20 -20 -19 -19 -18 -19 -19 -18 -17 -17 -17 -17 -17 -17 -16 -16 -16 -15 -15 -15 -14 -14 -14 -14 -14 -14 -14 -14 -13 -13 -13 -13 -14 -14 -14 -14 -13 -13 -13 -13 -13 -14 -14 -14 -14
-23 -22 -21 -21 -21 -20 -20 -19 -19 -19 -19 -19 -18 -18 -17 -17 -17 -17 -17 -17 -16 -16 -15 -15 -15 -15 -15 -15 -14 -14 -14 -14 -14 -13 -14 -14 -13 -14 -14 -14 -14 -14 -14 -14 -14 -14 -14 -14 -14
Height
5711 5723 5730 5734 5738 5734 5748 5768 5788 5793 5802 5810 5815 5819 5827 5836 5842 5849 5852 5854 5859 5862 5865 5867 5869 5871 5873 5874 5876 5878 5879 5881 5881 5881 5882 5883 5884 5884 5885 5886 5886 5886 5886 5886 5886 5885 5885 5886 5886
5697 5710 5715 5716 5717 5723 5742 5768 5778 5790 5800 5805 5809 5816 5822 5829 5835 5841 5848 5852 5856 5859 5863 5865 5867 5869 5871 5872 5873 5876 5878 5880 5880 5880 5881 5882 5882 5883 5884 5885 5885 5885 5885 5885 5886 5885 5886 5886 5886
5682 5695 5703 5702 5705 5716 5744 5762 5778 5783 5787 5795 5804 5810 5817 5824 5831 5837 5843 5847 5852 5856 5860 5861 5864 5867 5869 5870 5871 5874 5876 5878 5879 5879 5880 5881 5882 5883 5884 5884 5885 5885 5885 5885 5885 5886 5886 5886 5886
5670 5682 5692 5688 5696 5726 5746 5761 5767 5770 5775 5783 5794 5802 5812 5819 5826 5832 5839 5843 5847 5851 5856 5858 5861 5864 5867 5869 5870 5872 5874 5876 5878 5879 5879 5880 5881 5882 5883 5883 5884 5884 5884 5885 5884 5885 5886 5886 5886
5658 5671 5676 5677 5698 5729 5739 5751 5756 5759 5771 5775 5783 5796 5806 5814 5821 5827 5833 5839 5843 5847 5852 5855 5857 5860 5864 5866 5867 5869 5872 5874 5876 5877 5878 5879 5879 5881 5882 5882 5883 5884 5884 5884 5884 5884 5885 5886 5886
5648 5663 5670 5671 5701 5720 5734 5742 5749 5749 5765 5774 5780 5790 5800 5809 5817 5823 5828 5833 5838 5843 5847 5851 5854 5857 5860 5863 5865 5866 5869 5871 5873 5875 5877 5877 5878 5879 5880 5881 5882 5882 5883 5883 5883 5883 5884 5885 5885
5643 5657 5656 5674 5696 5710 5726 5734 5740 5751 5758 5769 5784 5789 5795 5804 5811 5818 5823 5828 5833 5839 5843 5847 5851 5854 5857 5859 5862 5864 5866 5869 5870 5872 5874 5876 5877 5878 5879 5880 5881 5881 5882 5882 5882 5882 5883 5884 5884
5642 5658 5668 5675 5684 5701 5717 5727 5738 5747 5755 5757 5769 5782 5792 5802 5807 5813 5818 5823 5828 5834 5838 5843 5847 5851 5854 5856 5858 5861 5864 5866 5868 5870 5872 5874 5876 5877 5878 5879 5879 5879 5880 5881 5881 5881 5881 5882 5883
5633 5647 5659 5667 5680 5697 5706 5718 5735 5746 5747 5757 5763 5773 5785 5796 5802 5807 5812 5818 5823 5828 5834 5838 5842 5846 5850 5853 5856 5858 5861 5864 5866 5868 5869 5871 5873 5875 5876 5877 5878 5878 5878 5879 5879 5880 5880 5881 5880
5635 5641 5660 5674 5682 5692 5703 5723 5735 5741 5743 5749 5754 5765 5778 5786 5793 5799 5806 5812 5818 5823 5828 5833 5838 5841 5845 5849 5852 5856 5859 5861 5863 5865 5867 5869 5870 5872 5874 5875 5876 5876 5877 5877 5877 5877 5878 5878 5878
5641 5648 5658 5672 5681 5690 5701 5717 5728 5737 5742 5747 5752 5758 5769 5778 5782 5786 5797 5805 5814 5818 5823 5829 5834 5837 5841 5844 5848 5852 5855 5858 5859 5861 5864 5865 5866 5868 5870 5872 5873 5874 5874 5875 5875 5875 5875 5875 5876
5651 5656 5663 5672 5680 5687 5698 5715 5726 5732 5740 5745 5748 5754 5759 5770 5779 5784 5789 5796 5804 5811 5818 5823 5828 5832 5836 5840 5843 5847 5850 5854 5856 5858 5860 5862 5863 5865 5866 5868 5870 5871 5872 5872 5872 5873 5873 5873 5873
5648 5650 5663 5673 5680 5687 5698 5710 5723 5731 5736 5739 5745 5754 5761 5765 5770 5781 5782 5793 5799 5805 5809 5815 5821 5827 5831 5836 5839 5843 5846 5850 5853 5854 5857 5859 5860 5862 5863 5865 5866 5867 5867 5869 5869 5869 5870 5869 5869
5642 5653 5665 5669 5675 5684 5696 5707 5717 5725 5730 5738 5746 5754 5759 5766 5768 5772 5774 5785 5792 5798 5802 5805 5811 5819 5824 5831 5835 5839 5842 5845 5847 5850 5853 5855 5856 5859 5860 5861 5861 5863 5863 5864 5865 5865 5865 5865 5865
5644 5655 5666 5672 5676 5684 5694 5704 5710 5720 5726 5734 5739 5748 5753 5763 5769 5771 5777 5784 5791 5800 5802 5801 5803 5813 5820 5825 5829 5833 5836 5840 5842 5845 5849 5850 5851 5853 5855 5856 5857 5859 5859 5859 5860 5860 5860 5860 5860
5647 5656 5661 5666 5673 5685 5691 5699 5707 5714 5723 5729 5736 5743 5748 5754 5762 5768 5776 5783 5789 5795 5799 5800 5802 5806 5815 5820 5824 5828 5831 5834 5836 5840 5842 5844 5845 5847 5849 5850 5853 5855 5855 5854 5855 5855 5856 5856 5856
5649 5650 5654 5660 5670 5682 5689 5696 5705 5710 5716 5724 5731 5738 5743 5750 5756 5765 5772 5781 5786 5790 5794 5799 5804 5804 5809 5813 5818 5821 5824 5828 5832 5835 5837 5838 5840 5842 5843 5844 5846 5848 5849 5849 5848 5847 5848 5848 5848
5651 5653 5658 5665 5669 5678 5685 5693 5701 5708 5713 5718 5726 5733 5740 5745 5753 5758 5764 5774 5781 5783 5789 5796 5799 5798 5800 5806 5811 5815 5819 5823 5827 5830 5831 5832 5834 5836 5838 5839 5840 5841 5842 5842 5841 5841 5840 5840 5839
5652 5655 5661 5660 5662 5676 5682 5689 5697 5705 5712 5715 5719 5727 5735 5740 5745 5751 5758 5766 5772 5776 5782 5786 5790 5795 5796 5800 5803 5807 5811 5816 5818 5822 5824 5828 5829 5831 5832 5833 5834 5835 5836 5835 5834 5834 5833 5832 5831
5652 5654 5658 5658 5664 5669 5674 5682 5691 5700 5706 5712 5714 5720 5728 5734 5740 5748 5756 5760 5762 5768 5773 5778 5781 5788 5791 5789 5799 5801 5805 5806 5809 5814 5818 5821 5821 5823 5825 5827 5828 5827 5827 5828 5828 5828 5826 5825 5822
5653 5655 5657 5660 5662 5664 5673 5680 5686 5692 5700 5706 5711 5716 5722 5731 5738 5742 5748 5754 5759 5762 5766 5770 5773 5778 5783 5784 5788 5794 5797 5797 5797 5805 5810 5811 5813 5817 5820 5820 5820 5820 5819 5819 5819 5819 5818 5815 5814
5648 5650 5656 5658 5662 5664 5668 5675 5681 5688 5693 5698 5706 5713 5718 5724 5730 5735 5741 5747 5752 5758 5760 5764 5768 5774 5777 5778 5782 5785 5788 5793 5795 5798 5800 5802 5806 5809 5810 5811 5811 5812 5810 5809 5807 5808 5808 5806 5806
5644 5646 5648 5651 5656 5660 5667 5672 5676 5680 5690 5695 5700 5708 5713 5715 5721 5727 5733 5739 5744 5748 5753 5758 5763 5768 5772 5776 5777 5780 5783 5785 5790 5791 5793 5797 5801 5803 5804 5804 5803 5802 5801 5800 5801 5801 5798 5796 5798
5640 5642 5644 5645 5647 5652 5659 5665 5670 5677 5684 5686 5689 5699 5705 5710 5715 5719 5723 5727 5734 5741 5746 5750 5755 5759 5764 5767 5770 5773 5776 5780 5782 5784 5788 5790 5792 5795 5797 5797 5795 5794 5794 5793 5792 5787 5791 5789 5789
5635 5636 5637 5639 5639 5645 5651 5654 5669 5671 5676 5680 5686 5695 5700 5705 5709 5712 5715 5720 5724 5729 5736 5741 5747 5751 5754 5757 5762 5765 5769 5771 5775 5776 5779 5782 5784 5787 5788 5789 5788 5788 5786 5786 5783 5780 5781 5783 5782
5623 5626 5628 5629 5634 5641 5643 5649 5658 5664 5670 5677 5682 5687 5693 5698 5702 5707 5710 5712 5715 5720 5726 5731 5736 5740 5743 5746 5751 5755 5758 5762 5765 5768 5771 5773 5774 5776 5777 5778 5779 5779 5778 5777 5776 5776 5774 5773 5772
5614 5618 5623 5627 5631 5635 5636 5644 5649 5653 5662 5670 5675 5681 5684 5687 5693 5697 5701 5706 5709 5713 5718 5723 5728 5731 5733 5736 5740 5744 5747 5751 5755 5757 5760 5761 5763 5765 5767 5767 5768 5768 5767 5767 5767 5765 5764 5762 5761
5606 5613 5617 5621 5625 5624 5629 5636 5642 5647 5649 5656 5665 5672 5675 5679 5684 5687 5692 5696 5701 5706 5711 5715 5720 5721 5724 5727 5730 5733 5737 5740 5743 5746 5748 5751 5753 5754 5755 5756 5756 5756 5756 5757 5756 5755 5753 5751 5749
5600 5605 5610 5614 5616 5619 5624 5630 5635 5639 5642 5647 5653 5661 5667 5670 5674 5679 5684 5690 5694 5698 5701 5706 5709 5713 5715 5719 5722 5724 5727 5729 5732 5735 5737 5739 5741 5742 5744 5743 5744 5745 5744 5744 5743 5741 5740 5738 5736
5593 5597 5603 5606 5611 5615 5619 5627 5630 5634 5638 5641 5643 5646 5654 5662 5667 5671 5677 5682 5686 5690 5694 5697 5700 5703 5706 5711 5714 5716 5718 5719 5721 5723 5724 5726 5728 5730 5731 5732 5733 5733 5732 5732 5731 5729 5727 5723 5721
Wind_Speed
71 72 70 74 75 80 78 72 64 60 55 54 53 52 47 39 39 37 35 34 29 26 24 23 20 18 17 15 14 13 12 8 7 8 8 7 5 4 2 1 1 3 5 6 6 5 4 4 4
69 72 73 76 81 80 79 70 67 60 56 55 55 53 49 42 41 38 35 32 31 29 26 24 21 20 19 17 14 14 14 11 10 9 9 8 7 5 3 2 1 3 4 5 5 4 3 2 4
70 74 69 76 83 81 71 67 59 64 62 58 55 54 50 46 42 39 36 34 31 27 27 24 22 21 20 18 15 14 14 13 11 10 9 9 7 5 4 3 2 3 4 4 3 2 1 1 2
71 75 66 66 84 74 65 63 65 64 69 62 57 60 53 48 43 39 36 34 33 30 27 25 23 22 21 18 16 15 16 13 12 11 10 9 7 5 4 3 3 4 4 3 2 2 1 1 1
70 75 78 55 74 70 66 63 66 70 75 61 56 58 54 50 46 41 39 36 32 30 29 27 26 24 22 20 18 16 15 14 14 12 12 10 8 7 6 4 4 5 5 4 3 3 2 2 1
71 77 74 58 62 68 68 63 67 73 67 67 49 58 55 51 48 41 38 38 36 33 32 29 27 25 23 21 20 18 16 15 15 14 13 11 10 8 6 6 5 6 5 5 5 4 4 3 4
70 79 65 50 45 62 70 63 67 67 69 62 59 58 58 56 51 46 40 37 35 35 34 30 28 26 24 23 21 19 18 17 16 15 13 12 10 9 8 7 6 6 7 6 6 5 5 5 6
69 66 71 50 60 58 70 64 65 65 62 73 45 62 53 56 54 50 47 42 38 36 34 33 30 27 26 24 22 20 19 18 17 15 14 13 12 11 10 9 8 8 8 8 8 7 7 8 8
75 33 68 32 55 54 68 69 64 61 64 64 49 59 42 58 53 50 45 41 44 44 38 34 33 29 27 25 23 21 20 19 17 15 14 13 13 13 12 11 11 11 10 9 9 9 9 10 11
70 41 35 70 48 60 63 65 58 60 63 60 71 48 57 43 53 51 47 40 34 44 40 37 35 33 30 27 24 21 19 18 16 15 15 15 14 14 14 14 15 14 13 12 12 11 12 13 13
61 73 42 49 44 53 56 61 59 58 61 57 56 64 46 55 45 43 54 47 39 42 44 41 38 34 31 28 23 21 17 16 13 14 14 15 15 14 16 16 17 17 16 15 15 15 15 16 16
48 45 51 45 42 47 51 57 63 59 57 43 48 47 63 43 61 48 55 49 50 48 47 44 43 38 34 31 27 23 19 18 16 14 15 15 16 16 17 18 19 19 18 18 18 19 18 18 19
28 44 46 27 53 48 50 50 59 62 59 54 50 43 43 49 42 65 39 56 50 55 56 50 46 40 34 31 26 22 20 18 18 17 18 17 16 16 17 20 21 21 20 20 20 21 21 21 21
10 36 59 30 49 55 54 51 58 59 59 58 54 43 38 36 46 44 34 38 26 63 61 56 46 39 33 30 27 23 20 19 18 18 19 17 16 17 19 21 21 22 22 23 23 23 23 24 24
25 40 62 40 48 49 57 55 53 58 60 56 58 48 49 43 44 43 37 31 35 40 49 52 46 40 34 32 29 25 23 21 19 19 20 19 20 20 21 23 23 24 24 24 25 26 26 26 27
31 47 33 51 49 49 54 59 53 55 58 57 53 47 47 49 41 38 38 34 47 38 35 45 43 40 38 31 29 28 25 23 21 22 22 21 20 21 23 26 27 27 26 26 27 28 30 31 32
19 24 33 52 50 55 50 57 59 54 58 58 52 48 44 45 48 51 47 40 35 37 34 31 32 31 31 31 36 32 29 24 20 18 19 21 21 22 25 26 27 28 29 29 29 30 31 33 34
23 29 34 35 51 47 54 56 60 60 56 57 54 51 45 42 42 47 47 48 39 39 40 34 35 33 32 36 31 32 25 24 19 18 22 22 23 23 25 24 25 25 27 29 31 33 34 36 36
32 25 45 36 55 50 51 54 59 58 57 56 53 50 50 43 38 39 39 43 42 40 39 29 26 32 33 33 36 35 33 24 25 22 20 17 20 23 26 28 27 26 28 30 32 34 36 38 41
37 31 26 26 48 38 59 62 49 53 56 58 54 53 48 49 43 39 39 39 37 34 30 33 29 29 35 31 42 33 32 26 22 22 21 22 23 26 28 31 31 30 33 36 36 37 32 33 29
38 37 33 27 41 56 41 59 49 51 59 60 57 56 51 49 48 44 41 41 37 37 36 35 32 31 30 29 28 27 24 27 28 26 25 29 30 30 33 34 34 36 38 39 40 34 28 35 38
30 37 40 37 30 39 51 36 44 55 53 63 62 59 52 51 52 51 44 43 42 43 43 42 39 36 36 35 35 38 36 33 33 32 35 35 35 34 36 38 37 38 39 41 41 34 39 36 37
20 24 38 49 51 51 37 40 35 47 53 54 59 61 56 53 51 49 50 49 50 49 47 50 48 42 41 39 41 39 40 34 33 36 36 35 36 37 38 36 37 39 41 40 44 43 39 28 31
34 32 28 37 40 53 50 43 45 41 29 36 43 59 57 55 54 50 53 55 53 48 45 45 45 45 46 45 45 44 42 39 40 39 40 42 41 40 39 39 37 39 38 33 43 29 38 42 39
41 40 35 29 32 45 48 52 45 41 34 30 36 39 47 49 50 47 45 42 44 53 53 51 51 51 52 49 47 46 45 45 44 45 45 44 42 42 44 38 38 41 43 42 48 52 38 48 46
43 38 38 35 34 33 34 52 50 43 44 41 34 37 44 42 40 49 51 47 40 43 43 38 38 43 46 49 50 50 49 49 48 47 47 47 47 47 46 44 45 44 45 48 49 49 50 46 46
36 34 32 33 34 36 37 35 40 35 40 43 43 36 39 42 43 42 46 52 48 48 48 48 44 41 40 45 48 49 47 49 51 51 50 50 50 50 50 48 50 52 51 52 52 53 53 49 55
34 34 34 30 27 23 29 35 31 27 30 36 41 44 40 34 35 44 47 45 50 51 55 52 49 44 42 42 45 49 52 51 51 52 52 53 52 53 54 54 55 56 57 55 55 55 57 59 59
33 36 35 32 32 32 27 21 25 29 26 34 44 51 47 41 35 34 42 46 47 46 44 42 39 38 40 41 44 46 47 47 48 48 51 53 55 55 58 60 59 59 58 59 59 60 62 63 61
27 27 30 38 33 27 31 32 25 23 34 34 33 36 49 50 47 41 38 39 40 44 45 44 44 45 45 45 45 44 46 47 48 48 50 52 54 55 59 61 61 60 60 61 60 62 65 62 59
Wind_Direction
216 214 215 217 216 220 219 213 208 211 206 206 210 214 218 211 216 221 218 222 222 220 218 221 218 212 210 209 204 206 214 226 219 211 216 203 194 191 181 207 330 339 334 336 343 353 14 38 59
212 211 214 218 215 219 218 210 209 206 207 206 211 214 214 209 212 215 214 218 220 221 220 219 219 213 211 211 206 209 213 225 230 222 220 208 207 201 202 223 281 313 324 332 345 354 28 54 64
207 208 215 217 217 215 216 211 206 206 211 199 207 212 212 213 210 214 214 209 213 215 219 217 216 215 214 211 208 210 210 222 234 230 221 222 220 210 214 229 260 299 318 328 340 347 35 84 78
204 206 211 219 220 211 213 213 207 206 206 193 199 210 210 211 210 209 214 213 212 215 217 217 215 214 215 212 214 210 214 221 235 233 227 219 225 232 238 250 281 293 300 302 303 278 209 189 116
202 198 209 218 220 212 206 212 212 211 207 214 192 207 210 210 212 212 213 212 210 212 215 215 213 213 215 215 216 215 215 220 227 230 227 222 221 229 244 260 267 283 288 277 261 256 245 242 246
199 200 202 215 214 213 208 210 213 217 205 205 202 209 211 208 212 209 210 211 213 213 213 215 214 211 213 214 214 213 213 217 223 223 224 224 225 230 240 255 267 271 267 262 257 251 244 261 270
199 200 211 218 206 212 209 210 215 218 216 197 205 201 212 211 211 210 212 210 209 214 215 215 217 214 213 210 211 211 212 215 216 219 223 226 232 235 240 248 256 266 269 260 254 252 248 250 266
195 194 213 222 201 204 206 211 214 218 220 208 194 206 205 212 212 212 214 215 209 209 216 213 211 211 212 209 208 210 213 215 218 219 222 228 234 242 245 249 254 259 264 261 258 252 260 267 268
196 182 205 205 211 202 204 208 212 214 225 217 182 190 190 209 212 210 211 213 216 215 212 212 212 210 212 213 210 209 211 215 216 220 224 230 235 241 247 253 256 256 258 260 263 266 264 267 272
195 208 194 211 195 198 204 206 210 214 223 224 220 184 194 188 207 206 210 213 219 212 207 210 212 206 205 204 205 208 212 213 216 222 226 233 236 246 251 255 258 257 258 261 260 262 264 266 269
194 210 213 201 203 193 202 203 209 213 220 227 231 223 201 192 192 195 209 207 208 210 211 210 208 204 201 198 199 202 202 210 212 219 230 233 240 244 252 255 259 262 260 260 262 260 260 264 268
180 207 211 210 221 214 203 203 207 215 216 221 228 229 234 194 205 200 208 203 203 208 210 207 207 201 199 199 198 200 203 214 217 223 230 235 239 244 247 254 258 260 263 263 263 264 264 264 267
188 200 198 205 219 208 206 200 206 214 219 221 222 217 234 220 217 192 206 203 205 205 212 202 198 198 196 198 196 199 202 211 223 229 238 243 249 252 254 257 259 262 263 267 268 269 270 270 271
125 178 198 191 193 196 202 202 208 212 218 224 228 223 219 211 217 224 229 205 206 204 208 194 188 192 191 197 200 201 207 213 222 232 241 248 256 262 264 264 265 267 268 269 270 270 273 275 276
124 154 196 200 204 194 201 202 209 214 218 220 225 225 223 225 228 233 231 216 220 209 211 198 194 190 194 199 201 200 207 215 220 231 240 245 251 258 264 268 270 272 273 274 276 275 276 279 281
147 175 188 186 205 195 198 203 207 215 216 221 225 228 229 226 224 224 219 224 223 219 210 208 202 196 204 200 206 210 208 216 223 231 239 245 253 260 265 270 275 278 280 283 282 282 284 283 282
193 196 154 184 195 200 204 207 208 212 220 219 221 223 230 230 234 233 229 226 231 218 220 205 198 202 201 219 217 210 213 216 224 232 244 254 261 265 268 274 279 282 283 283 283 283 283 283 283
211 200 171 184 188 204 207 209 209 215 220 224 224 223 229 234 231 233 233 229 233 220 217 214 214 221 201 207 210 225 214 203 213 234 254 264 265 271 273 274 276 280 282 283 283 283 284 282 281
252 205 194 193 173 202 213 212 210 213 219 228 230 229 228 232 234 237 231 234 239 235 233 228 230 212 211 218 216 218 206 216 215 231 248 262 262 268 270 274 278 285 287 287 287 285 283 286 281
259 237 253 269 177 195 207 205 209 210 212 221 226 228 228 233 234 235 236 239 240 253 245 244 242 232 220 224 223 229 230 253 238 234 239 247 250 257 269 276 278 281 283 285 285 285 288 281 287
254 253 241 241 204 214 197 208 206 210 215 219 224 230 227 228 230 231 233 239 241 250 251 251 244 245 247 245 246 239 233 252 240 233 239 244 249 260 264 270 272 274 278 280 283 285 273 281 286
253 251 244 248 200 214 221 209 220 216 216 219 220 227 230 232 232 233 231 234 238 242 247 250 252 253 254 256 261 253 254 243 251 246 241 251 253 256 263 270 278 279 280 280 283 285 280 278 291
264 257 247 248 250 251 232 234 213 205 215 221 219 224 230 233 235 238 241 240 240 243 245 248 247 246 249 252 252 256 260 259 262 254 252 257 264 267 272 277 278 280 280 281 283 271 281 281 297
252 256 257 245 241 247 245 242 229 222 232 222 210 222 226 233 236 238 241 242 244 245 246 246 245 244 244 246 249 252 257 254 255 261 259 262 267 269 266 269 279 279 282 288 264 253 283 300 294
248 250 250 248 239 241 239 245 237 244 233 248 223 227 224 224 229 229 234 244 247 244 241 243 245 250 249 248 249 251 252 251 253 255 257 259 261 261 264 268 277 280 283 283 289 301 291 313 307
249 244 244 244 246 247 242 241 247 246 241 241 247 239 230 224 231 235 241 247 247 238 236 243 251 250 248 251 252 252 251 252 253 256 258 259 260 262 265 274 276 275 281 287 289 291 296 296 301
242 236 235 239 242 245 245 242 243 243 243 242 243 239 231 237 237 237 241 243 247 240 245 252 254 253 252 251 253 254 256 256 257 258 257 259 260 260 263 268 271 273 278 282 287 290 292 289 291
237 234 234 232 231 237 242 243 245 237 235 230 231 231 212 215 224 228 235 237 242 239 246 250 252 251 254 255 255 254 256 258 259 259 260 258 259 259 260 264 267 271 278 280 283 287 288 290 290
237 234 234 235 237 236 231 237 231 230 221 226 229 236 226 220 219 224 225 226 229 233 238 240 242 245 248 249 250 252 252 255 258 261 262 262 262 263 261 264 265 267 271 277 282 286 286 286 288
227 229 237 239 240 238 241 234 244 237 239 232 230 232 238 236 238 239 240 239 239 237 237 240 245 249 252 250 250 253 257 258 259 261 263 264 265 264 263 265 268 268 272 276 279 281 283 287 289